Location: Grums
(59.3529°N, 13.1129°E)
Time: 04:28:13
(UTC+02:00)

Envisat - Visible Passes

Search period start: 27 September 2021 00:00
Search period end: 07 October 2021 00:00
Orbit: 764 x 766 km, 98.2° (Epoch: 26 September)

Date Brightness Start Highest point End Pass type
(mag) Time Alt. Az. Time Alt. Az. Time Alt. Az.
27 Sep 6.1 04:42:54 10° NE 04:45:24 14° E 04:47:54 10° ESE visible
27 Sep 3.8 06:20:29 10° NNE 06:25:33 59° ESE 06:30:34 10° S visible
27 Sep 6.8 19:29:38 10° W 19:30:06 10° WNW 19:30:33 10° WNW visible
28 Sep 4.9 05:43:48 10° NNE 05:48:27 34° E 05:53:04 10° SSE visible
29 Sep 5.8 05:07:26 10° NE 05:11:09 20° E 05:14:53 10° SE visible
30 Sep 6.2 04:32:08 10° ENE 04:33:41 11° ENE 04:35:14 10° E visible
30 Sep 4.1 06:09:00 10° NNE 06:13:58 50° E 06:18:55 10° S visible
01 Oct 5.2 05:32:23 10° NNE 05:36:49 29° E 05:41:13 10° SSE visible
02 Oct 5.9 04:56:11 10° NE 04:59:28 17° E 05:02:46 10° SE visible
03 Oct 4.4 05:57:32 10° NNE 06:02:24 42° E 06:07:12 10° SSE visible
04 Oct 5.4 05:21:00 10° NE 05:25:11 25° E 05:29:20 10° SE visible
05 Oct 6.0 04:45:03 10° NE 04:47:46 14° E 04:50:29 10° ESE visible
05 Oct 3.6 06:22:47 10° NNE 06:27:52 62° ESE 06:32:54 10° S visible
06 Oct 4.7 05:46:05 10° NNE 05:50:47 36° E 05:55:27 10° SSE visible
